Location: Brantley
(31.5822°N, 86.2569°W)
Time: 18:49:35
(UTC+00:00)

Vanguard 2 - Pass Details

Date: 21 February 2026
Orbit: 553 x 2896 km, 32.9° (Epoch: 10 March)

Event Time Altitude Azimuth Distance (km) Brightness Sun altitude
Rises 06:37:49 0° 203° (SSW) 6,109 - -67.1°
Reaches altitude 10° 06:44:12 10° 187° (S) 4,647 - -66.5°
Maximum altitude 06:51:13 17° 152° (SSE) 3,477 - -65.7°
Drops below altitude 10° 06:56:42 10° 115° (ESE) 3,486 - -65.0°
Sets 07:00:24 0° 95° (E) 4,066 - -64.6°
